Find Starlink 30708

NORAD ID: 57944 Int'l Des: 2023-148 Owner: SPXS Country: US Constellation: starlink operational
LEOCIRCULAR

現在のビュー

3D地球を読み込み中...

About Starlink 30708

Starlink 30708 (NORAD 57944) is a starlink constellation satellite (v2 mini) launched Sep 25, 2023 by SPXS of US. It operates in LEO, CIRCULAR orbit with a mass of 730.00 kg.

Starlink 30708について

説明を読み込み中...

次回通過

Passes for default location (London). Set your location on the main map for personalized predictions.

高度履歴

Loading altitude history...

軌道要素

1 57944U 23148K 26174.93362711 .00001185 00000-0 46203-4 0 9993
2 57944 53.1603 249.7380 0001139 92.8561 267.2572 15.34388573154702
Epoch: Jun 23, 2026 • Age: 38 hours

現在のステータス

高度 463.7 km
速度 7.64 km/s
衛星直下点 28.55°N, 63.49°W
打ち上げ日 Sep 25, 2023
運用期間 2.7 years
タイプ internet

技術仕様

分類 Payload
質量 730.00 kg
乾燥質量 700.00 kg
総質量 730.00 kg
長さ 0.30 m
直径 4.10 m
スパン 29.00 m
形状 Box + pan
製造者 SPXS
バスタイプ Starlink V2M
フェーズステータス In Orbit
所有者/国 SPXS/US

Most Searched